Location: Conflandey
(47.7287°N, 6.0456°E)
Time: 02:35:52
(UTC+00:00)

USA 229 - Pass Details

Date: 24 October 2021
Orbit: 946 x 1266 km, 63.4° (Epoch: 25 November)

Event Time Altitude Azimuth Distance (km) Brightness Sun altitude
Rises 19:15:04 0° 234° (SW) 3,649 7.0 -28.1°
Reaches altitude 10° 19:17:36 10° 238° (WSW) 2,732 6.3 -28.5°
Maximum altitude 19:23:55 59° 318° (NW) 1,178 4.0 -29.5°
Enters shadow 19:26:59 33° 23° (NNE) 1,705 4.6 -30.0°
